Location: Berua Church
(35.0423°N, 88.5987°W)
Time: 05:55:47
(UTC+00:00)

Cosmos 1733 Rocket - Pass Details

Date: 08 December 2019
Orbit: 604 x 627 km, 82.5° (Epoch: 23 January)

Event Time Altitude Azimuth Distance (km) Brightness Sun altitude
Rises 23:43:51 0° 348° (NNW) 2,885 6.4 -12.3°
Reaches altitude 10° 23:46:06 10° 344° (NNW) 1,979 5.6 -12.8°
Maximum altitude 23:50:23 55° 267° (W) 741 3.8 -13.6°
Drops below altitude 10° 23:54:40 10° 189° (S) 1,980 6.0 -14.4°
Sets 23:56:56 0° 185° (S) 2,885 6.8 -14.9°
